Regional Weather Roundup
Issued by NWS Charleston, SC

Home | Current Version | Previous Version | Text Only | Print | Product List | Glossary On
Versions: 1 2 3 4 5 6 7 8 9 10 11 12 13 14 15 16 17 18 19 20 21 22 23 24 25 26 27 28 29 30 31 32 33 34 35 36 37 38 39 40 41 42 43 44 45 46 47 48 49 50
000
ASUS42 KCHS 281225
RWRCHS

REGIONAL WEATHER ROUNDUP
NATIONAL WEATHER SERVICE CHARLESTON SC
700 AM EST SUN DEC 28 2014

NOTE: "FAIR" INDICATES FEW OR NO CLOUDS BELOW 12,000 FEET WITH NO
SIGNIFICANT WEATHER AND/OR OBSTRUCTIONS TO VISIBILITY.

NOT ALL STATIONS ARE QUALITY CONTROLLED BY THE NATIONAL
WEATHER SERVICE. USE DATA WITH CAUTION...ESPECIALLY
DEWPOINT OBSERVATIONS.

SCZ027-030-031-034>040-042>050-281300-
...SOUTHEAST SOUTH CAROLINA...

CITY           SKY/WX    TMP DP  RH WIND       PRES   REMARKS
N CHARLESTON   MOCLDY    52  50  93 CALM      30.15R
6HR MIN TEMP:  51; 6HR MAX TEMP:  54;

WATERFRONT PRK   N/A     55 N/A N/A CALM        N/A
MOUNT PLEASANT FAIR      50  50 100 CALM      30.15R
PINOPOLIS        N/A     57  54  88 VRB3      30.08R
MONCKS CORNER  FAIR      54  50  87 CALM      30.16R
SUMMERVILLE    FAIR      52  52 100 CALM      30.16S
BEAUFORT MCAS  PTCLDY    53  50  89 CALM      30.15R
6HR MIN TEMP:  51; 6HR MAX TEMP:  55;

BEAUFORT ARPT  FAIR      52  52 100 CALM      30.14R
HILTON HEAD IS PTCLDY    54  54 100 CALM      30.15
WALTERBORO     CLOUDY    54 N/A N/A CALM      30.16S
ALLENDALE      PTSUNNY   55  54  94 CALM      30.16R

...SOUTHERN MIDLANDS AND PEE DEE...

CITY           SKY/WX    TMP DP  RH WIND       PRES   REMARKS
GEORGETOWN     NOT AVBL
KINGSTREE      NOT AVBL
ORANGEBURG     CLOUDY    55  51  86 CALM      30.16R
6HR MIN TEMP:  53; 6HR MAX TEMP:  55; 6HR PCP:  0.01;

BARNWELL       CLOUDY    55  55 100 CALM      30.16F
AIKEN          DRIZZLE   54  54 100 SE3       30.15F
MANNING        CLOUDY    55 N/A N/A CALM      30.16R
COLUMBIA       RAIN      54  51  90 SE5       30.13F FOG
6HR MIN TEMP:  51; 6HR MAX TEMP:  54; 6HR PCP:  0.10;

SUMTER         CLOUDY    55  54  94 SW2       30.13F
6HR MIN TEMP:  51; 6HR MAX TEMP:  56; 6HR PCP: TRACE;

FLORENCE       CLOUDY    55  50  83 SW6       30.14R
6HR MIN TEMP:  52; 6HR MAX TEMP:  55; 6HR PCP: TRACE;

MYRTLE BEACH   MOCLDY    52  48  87 CALM      30.16R
N MYRTLE BEACH CLOUDY    50  49  96 CALM      30.14R
6HR MIN TEMP:  50; 6HR MAX TEMP:  52; 6HR PCP: TRACE;


$$

GAZ063-065-086>088-099>101-113>116-118-119-134>141-150-281300-
...SOUTHEAST GEORGIA...

CITY           SKY/WX    TMP DP  RH WIND       PRES   REMARKS
SAVANNAH ARPT  PTCLDY    52  51  97 CALM      30.14R
6HR MIN TEMP:  51; 6HR MAX TEMP:  53;

HUNTER AAF     PTCLDY    50  50 100 CALM      30.12R
6HR MIN TEMP:  50; 6HR MAX TEMP:  53;

FORT STEWART   PTCLDY    50  48  94 CALM      30.12R
6HR MIN TEMP:  49; 6HR MAX TEMP:  53;

STATESBORO     CLOUDY    53  53 100 CALM      30.15R FOG
SYLVANIA       CLOUDY    55  55 100 CALM      30.16R
CLAXTON        FAIR      52  52 100 CALM      30.14S

...CSRA...CENTRAL AND FAR SOUTHEAST GEORGIA...

CITY           SKY/WX    TMP DP  RH WIND       PRES   REMARKS
THOMSON        CLOUDY    55  55 100 CALM      30.17S
AUGUSTA-BUSH   CLOUDY    53  53 100 CALM      30.14F FOG
6HR MIN TEMP:  51; 6HR MAX TEMP:  54; 6HR PCP:  0.01;

AUGUSTA-DANIEL CLOUDY    55  52  89 SE3       30.13F
SWAINSBORO     CLOUDY   N/A N/A N/A CALM      30.15S
VIDALIA        PTCLDY    55  55 100 CALM      30.14R FOG
EASTMAN        CLOUDY    54  54 100 CALM      30.15S FOG
HAZLEHURST     FAIR      58  58 100 S3        30.12S
ALMA           MOCLDY    53  52  96 CALM      30.13S
6HR MIN TEMP:  52; 6HR MAX TEMP:  57;

WAYCROSS       CLOUDY    58  58  99 CALM      30.14R
JESUP          FAIR      52  50  93 CALM      30.14R
BAXLEY         CLOUDY    55  55 100 CALM      30.13S
BRUNSWICK        N/A     52  50  93 CALM      30.15R
SAINT SIMONS   CLEAR     54  53  97 CALM      30.13R
6HR MIN TEMP:  54; 6HR MAX TEMP:  59;


$$

SCZ027-028-034-036>038-045-046-048>050-GAZ119-141-281300-
...LAKE AND SUPPLEMENTAL COASTAL OBSERVATIONS...

STATION/POSITION TIME  TEMP    WIND        PRES    WAVE   SWELL
                       AIR SEA DIR/SP/G            HT/PER HT/PER/DIR
                 (UTC) (F)     (DEG/KT/KT) (MB)    (FT/S) (FT/S/D)
UPR LAKE MARION  NOT AVBL
WINYAH BAY       1200   52     310/  2     1020.0S
LAKE MURRAY      1200   54     210/  5/  6 1019.6F
ACE BASIN NERRS  1200   51        CALM     1020.0S
FORT PULASKI     1200   55 56   CALM  /  1 1020.9R
SAPELO ISLAND    1200   54     320/  1     1020.0S

$$

ANZ835-935-AMZ111-154-330-350-352-354-370-450-454-472-281300-
...C-MAN AND BUOY OBSERVATIONS...

STATION/POSITION TIME  TEMP    WIND        PRES    WAVE   SWELL
                       AIR SEA DIR/SP/G            HT/PER HT/PER/DIR
                 (UTC) (F)     (DEG/KT/KT) (MB)    (FT/S) (FT/S/D)
BUOY 41004       1200   72 74  210/ 10/ 12 1019.9R   3/15   2/15
BUOY 41008       1200   61 58  170/  4/  4 1020.3R   3/16   3/ 70/16
FOLLY BEACH CMAN 1200   55     330/  3/  4 1021.2R
CAPERS NEARSHORE 1100   56     360/  4/  6   N/A
FRIPP NEARSHORE  NOT AVBL


STATION/POSITION TIME  TEMP    WIND        PRES    WAVE   SWELL
                       AIR SEA DIR/SP/G            HT/PER HT/PER/DIR
                 (UTC) (F)     (DEG/KT/KT) (MB)    (FT/S) (FT/S/D)
5E ST. MARYS GA  1200      60                N/A     3/15   2/ 90/15
FRYING PAN BUOY  1200   68 68  250/ 10/ 10 1020.8R   5/14   5/110/14
BUOY 41025       1200   70                 1019.5F   4/14
CAPE LOOKOUT NC  1200   60     160/  3/  4 1019.6F
BUOY 41002       1147   72 74  180/ 14/ 17 1022.4R   5/15   5/ 60/15
BUOY 41010       1200   75 77  160/ 10/ 12 1021.0S   5/15   5/ 90/15
ST AUGUSTINE FL  1200   62     290/  2/  2 1021.1F


$$


USA.gov is the U.S. government's official web portal to all federal, state and local government web resources and services.